Regional Weather Roundup
Issued by NWS

Home | Current Version | Previous Version | Text Only | Print | Product List | Glossary Off
Versions: 1 2 3 4 5 6 7 8 9 10 11 12 13 14 15 16 17 18 19 20 21 22 23 24 25 26 27 28 29 30 31 32 33 34 35 36 37 38 39 40 41 42 43 44 45 46 47 48 49 50

000
ASUS44 KMEG 230310
RWRTN
TENNESSEE HOURLY STATE WEATHER ROUNDUP
NATIONAL WEATHER SERVICE MEMPHIS TN
1000 PM CDT SAT JUL 22 2017

TNZ002-004-019-021-049-052-054-088>092-230400-
WEST TENNESSEE

CITY           SKY/WX    TMP DP  RH WIND       PRES   REMARKS
MEMPHIS INTL   PTCLDY    85  75  72 S7        29.92S HX  93
NWS MEMPHIS      N/A     86 N/A N/A MISG        N/A
JACKSON        CLOUDY    83  74  74 S9        29.92R
SOMERVILLE       N/A     82  75  78 S6        29.92S
COVINGTON      CLEAR     84  77  79 S5        29.90S HX  94
UNION CITY     CLEAR     82  77  83 SW3       29.87R HX  91
BOLIVAR        CLEAR     81  73  78 CALM      29.92F
PARIS          CLEAR     79  75  89 CALM      29.89R
HUNTINGDON     PTCLDY    84  77  79 SW6       29.90R HX  94
LEXINGTON      MOCLDY    81  73  78 S7        29.92S
SELMER         CLEAR     79  73  83 SW5       29.94S
SAVANNAH       PTCLDY    77  72  83 S3        29.94R
$$

TNZ008-025-027-028-033-062-065-066-230400-
NORTH MIDDLE TENNESSEE

CITY           SKY/WX    TMP DP  RH WIND       PRES   REMARKS
NASHVILLE      PTCLDY    87  73  62 SW7       29.93R HX  94
PORTLAND         N/A     82  77  83 SW5       29.91S HX  91
CLARKSVILLE    CLEAR     84  75  74 SW6       29.90R HX  92
SMYRNA         CLEAR     86  74  67 SW7       29.93R HX  94
COOKEVILLE     CLEAR     79  75  89 CALM      29.95R
GALLATIN       CLEAR     84  73  70 CALM      29.93R HX  91
CROSSVILLE     CLEAR     78  72  81 SW3       30.02R
$$

TNZ061-075-076-078-094-096-097-230400-
SOUTH MIDDLE TENNESSEE

CITY           SKY/WX    TMP DP  RH WIND       PRES   REMARKS
FAYETTEVILLE   CLEAR     81  75  83 SW5       29.97R
TULLAHOMA        N/A     79  73  83 SW5       29.98F
WINCHESTER     CLEAR     79  73  83 CALM      29.98R
MCMINNVILLE    CLEAR     82  79  89 SW6       29.97R HX  93
COLUMBIA       CLEAR     81  75  83 SW6       29.92S
SHELBYVILLE    CLEAR     81  75  83 S6        29.95S
$$

TNZ017-018-042-046-047-230400-
NORTHEAST TENNESSEE

CITY           SKY/WX    TMP DP  RH WIND       PRES   REMARKS
TRI CITIES     PTCLDY    81  71  71 SW7       29.97R
ELIZABETHTON   CLOUDY    77  72  83 CALM      29.98R
$$

TNZ012-013-036-069-073-074-230400-
CENTRAL EAST TENNESSEE

CITY           SKY/WX    TMP DP  RH WIND       PRES   REMARKS
KNOXVILLE      PTCLDY    83  71  67 SW9       29.94R
OAK RIDGE      CLEAR     84  75  74 CALM      29.95R HX  92
DOWNTOWN KNOXV CLEAR     82  75  78 SW3       29.93S
GATLINBURG     CLEAR     84  68  58 SW5       29.94S
MORRISTOWN     CLEAR     82  72  69 CALM      29.95F
JACKSBORO        N/A     79  75  89 CALM      29.99R
$$

TNZ083-085-099-230400-
SOUTHEAST TENNESSEE

CITY           SKY/WX    TMP DP  RH WIND       PRES   REMARKS
CHATTANOOGA    PTCLDY    85  73  67 SW8       29.96R HX  91
DAYTON         MOCLDY    84  77  79 SW3       29.94R HX  94
$$

SKY/WX REPORTED AS FAIR MEANS FEW OR NO CLOUDS BELOW
12 THOUSAND FEET.





USA.gov is the U.S. government's official web portal to all federal, state and local government web resources and services.